CAPE
4 4 3 3 3 2 0 0 0 1 1 0 0 0 0 0 0 0 0 0 0 0 0 0 0 0 0 0 0 1002 1868 1134 1065 223 11 144 165 102 234 348 482 490 400 220 216 210 117
7 5 5 5 5 3 1 1 1 2 1 1 1 0 0 0 0 0 0 0 0 0 0 0 0 0 0 0 0 496 770 568 382 186 0 84 310 234 220 170 222 144 92 90 45 74 227
8 7 7 8 6 4 4 3 1 1 1 2 1 1 0 0 0 0 0 0 0 0 0 0 0 0 0 0 0 194 171 205 348 139 61 164 445 794 361 150 144 167 87 180 36 120 239
11 11 7 6 4 4 4 2 2 2 2 2 1 1 0 0 0 0 0 0 0 0 0 0 0 0 0 0 0 58 314 141 282 358 444 494 474 575 530 116 84 85 67 213 253 181 263
6 4 3 3 7 6 6 5 2 4 4 2 1 0 0 0 0 0 0 0 0 0 0 0 0 0 0 0 0 0 94 14 117 220 494 691 691 537 108 50 54 8 64 121 265 295 291
1 1 1 2 6 8 7 6 5 4 3 1 0 0 0 0 0 0 0 0 0 0 0 0 0 0 0 0 0 0 0 1 23 34 94 280 577 367 5 40 113 68 62 45 196 217 310
3 1 1 1 5 7 8 6 4 3 3 2 1 0 0 0 0 0 0 0 0 0 0 0 0 0 0 0 0 0 0 0 59 2 69 187 133 53 1 4 57 2 26 37 46 158 111
1 1 3 3 1 4 4 3 4 2 2 1 1 0 0 0 0 0 0 0 0 0 0 0 0 0 0 0 0 0 0 207 172 300 0 0 0 0 0 0 0 0 0 32 24 120 53
6 5 5 6 5 6 6 6 4 2 2 1 0 0 0 0 0 0 0 0 0 0 0 0 0 0 0 0 0 0 0 0 0 0 0 0 4 0 0 0 0 0 4 33 21 102 22
7 7 9 8 8 8 8 6 4 3 1 1 0 0 0 0 0 0 0 0 0 0 0 0 0 0 0 0 0 0 0 0 0 0 0 0 0 0 0 0 0 0 0 0 16 111 119
7 12 12 11 11 9 8 6 4 2 1 1 1 1 0 0 0 0 0 0 0 0 0 0 0 0 0 0 0 0 0 0 0 0 0 0 0 0 0 0 0 0 0 0 0 1 0
6 12 13 12 12 9 8 6 3 2 1 1 1 1 1 0 0 0 0 0 0 0 0 0 0 0 0 0 0 0 0 0 0 0 0 0 0 0 0 0 0 0 0 0 0 0 0
5 12 10 10 9 8 6 4 3 1 1 0 0 0 0 0 0 0 0 0 0 0 0 0 0 0 0 0 0 0 0 0 0 0 0 0 0 0 0 0 0 0 0 0 0 0 0
8 13 12 10 8 6 5 3 2 1 1 0 0 0 0 0 0 0 0 0 0 0 0 0 0 0 0 0 0 0 0 0 0 0 0 0 0 0 0 0 0 0 0 0 0 0 0
13 14 13 10 8 7 6 4 1 0 0 0 0 0 0 0 0 0 0 0 0 0 0 0 0 0 0 0 0 0 0 0 0 0 0 0 0 0 0 0 0 0 0 0 0 0 0
9 12 11 10 8 7 6 3 1 0 0 0 0 0 0 0 0 0 0 0 0 0 0 0 0 0 0 0 0 0 0 0 0 0 0 0 0 0 0 0 0 0 0 0 0 0 0
9 10 10 10 8 7 4 1 0 0 0 0 0 0 0 0 0 0 0 0 0 0 0 0 0 0 0 0 0 0 0 0 0 0 0 0 0 0 0 0 0 0 0 0 0 0 0
10 10 9 9 7 7 4 0 0 0 0 0 0 0 0 0 0 0 0 0 0 0 0 0 0 0 0 0 0 0 0 0 0 0 0 0 0 0 0 0 0 0 0 0 0 0 0
11 10 9 9 7 7 4 0 0 0 0 0 0 0 0 0 0 0 0 0 0 0 0 0 0 0 0 0 0 0 0 0 0 0 0 0 0 0 0 0 0 0 0 0 0 0 0
10 10 11 12 10 7 4 0 0 0 0 0 0 0 0 0 0 0 0 0 0 0 0 0 0 0 0 0 0 0 0 0 0 0 61 0 0 0 0 0 0 0 0 0 0 0 0
3 5 6 12 11 10 6 0 0 0 0 0 0 0 0 0 0 0 0 0 0 0 0 0 0 0 0 0 0 0 0 0 0 0 0 0 0 0 0 0 0 0 0 0 0 0 0
2 3 3 8 11 11 8 3 0 0 0 0 0 0 0 0 0 0 0 0 0 0 0 0 0 0 0 0 0 0 0 0 0 0 0 0 0 0 0 0 0 0 0 0 0 0 0
1 2 2 2 4 10 9 6 1 0 0 0 0 0 0 0 0 0 0 0 0 0 0 0 0 0 0 0 0 0 0 0 0 0 0 0 0 0 0 0 0 0 0 0 0 0 0
1 1 1 2 3 3 10 10 6 0 0 0 0 0 0 0 0 0 0 0 0 0 0 0 0 0 0 0 0 0 0 0 0 0 0 0 0 0 0 0 0 0 0 0 0 0 0
0 1 1 2 3 3 5 9 9 3 0 0 0 0 0 0 0 0 0 0 0 0 0 0 0 0 0 0 0 0 0 0 0 0 0 0 0 0 0 0 0 0 0 0 0 0 0
0 0 1 2 3 4 4 6 11 5 0 0 0 0 0 0 0 0 0 0 0 0 0 0 0 0 0 0 0 0 0 0 0 0 0 0 0 0 0 0 0 0 0 0 0 0 0
0 0 0 1 3 4 4 4 6 4 5 0 0 0 0 0 0 0 0 0 0 0 0 0 0 0 0 0 0 0 0 0 0 0 0 0 0 0 0 0 0 0 0 0 0 0 3
0 0 0 0 1 5 6 5 5 5 7 0 0 0 0 0 0 0 0 0 0 0 0 0 0 0 0 0 0 0 0 0 0 0 0 0 0 0 0 0 0 0 0 0 0 0 0
1 0 0 0 0 2 6 2 2 2 1 2 0 0 0 0 0 0 0 0 0 0 0 0 0 0 0 0 0 0 0 0 0 0 0 0 0 0 0 0 0 0 0 0 0 0 0
CIN
-0 -0 -0 -0 -0 -0 -0 -0 -0 -0 -0 -0 -0 -0 -0 -0 -0 -0 -0 -0 -0 -0 -0 -0 -0 -0 -0 -0 -0 -549 -487 -529 -495 -574 -519 -465 -364 -341 -220 -322 -257 -220 -127 -96 -61 -62 -120
-0 -0 -0 -0 -0 -0 -0 -0 -0 -0 -0 -0 -0 -0 -0 -0 -0 -0 -0 -0 -0 -0 -0 -0 -0 -0 -0 -0 -0 -647 -615 -587 -512 -510 -0 -417 -274 -365 -196 -212 -194 -195 -121 -106 -115 -103 -99
-0 -0 -0 -0 -0 -0 -0 -0 -0 -0 -0 -0 -0 -0 -0 -0 -0 -0 -0 -0 -0 -0 -0 -0 -0 -0 -0 -0 -0 -730 -631 -578 -517 -445 -417 -313 -299 -182 -252 -128 -142 -155 -136 -125 -175 -138 -147
-0 -0 -0 -0 -0 -0 -0 -0 -0 -0 -0 -0 -0 -0 -0 -0 -0 -0 -0 -0 -0 -0 -0 -0 -0 -0 -0 -0 -0 -728 -676 -535 -539 -482 -383 -386 -408 -330 -213 -235 -166 -151 -193 -91 -131 -242 -194
-0 -0 -0 -0 -0 -0 -0 -0 -0 -0 -0 -0 -0 -0 -0 -0 -0 -0 -0 -0 -0 -0 -0 -0 -0 -0 -0 -0 -0 -0 -700 -227 -576 -553 -497 -305 -341 -326 -240 -186 -180 -140 -81 -156 -127 -217 -267
-0 -0 -0 -0 -0 -0 -0 -0 -0 -0 -0 -0 -0 -0 -0 -0 -0 -0 -0 -0 -0 -0 -0 -0 -0 -0 -0 -0 -0 -0 -0 -62 -427 -481 -477 -430 -331 -272 -77 -168 -91 -77 -151 -215 -141 -166 -211
-0 -0 -0 -0 -0 -0 -0 -0 -0 -0 -0 -0 -0 -0 -0 -0 -0 -0 -0 -0 -0 -0 -0 -0 -0 -0 -0 -0 -0 -0 -0 -0 -366 -116 -241 -370 -199 -121 -168 -62 -149 -165 -157 -127 -147 -189 -227
-0 -0 -0 -0 -0 -0 -0 -0 -0 -0 -0 -0 -0 -0 -0 -0 -0 -0 -0 -0 -0 -0 -0 -0 -0 -0 -0 -0 -0 -0 -0 -173 -225 -122 -0 -0 -0 -0 -0 -0 -0 -0 -23 -180 -203 -196 -225
-0 -0 -0 -0 -0 -0 -0 -0 -0 -0 -0 -0 -0 -0 -0 -0 -0 -0 -0 -0 -0 -0 -0 -0 -0 -0 -0 -0 -0 -0 -0 -0 -0 -0 -0 -0 -93 -0 -0 -0 -0 -0 -68 -127 -153 -279 -351
-0 -0 -0 -0 -0 -0 -0 -0 -0 -0 -0 -0 -0 -0 -0 -0 -0 -0 -0 -0 -0 -0 -0 -0 -0 -0 -0 -0 -0 -0 -0 -0 -0 -0 -0 -0 -0 -0 -0 -0 -0 -0 -0 -0 -119 -184 -139
-0 -0 -0 -0 -0 -0 -0 -0 -0 -0 -0 -0 -0 -0 -0 -0 -0 -0 -0 -0 -0 -0 -0 -0 -0 -0 -0 -0 -0 -0 -0 -0 -0 -0 -0 -0 -0 -0 -0 -0 -0 -0 -0 -0 -0 -228 -0
-0 -0 -0 -0 -0 -0 -0 -0 -0 -0 -0 -0 -0 -0 -0 -0 -0 -0 -0 -0 -0 -0 -0 -0 -0 -0 -0 -0 -0 -0 -0 -0 -0 -0 -0 -0 -0 -0 -0 -0 -0 -0 -0 -0 -0 -0 -0
-0 -0 -0 -0 -0 -0 -0 -0 -0 -0 -0 -0 -0 -0 -0 -0 -0 -0 -0 -0 -0 -0 -0 -0 -0 -0 -0 -0 -0 -0 -0 -0 -0 -0 -0 -0 -0 -0 -0 -0 -0 -0 -0 -0 -0 -0 -0
-0 -0 -0 -0 -0 -0 -0 -0 -0 -0 -0 -0 -0 -0 -0 -0 -0 -0 -0 -0 -0 -0 -0 -0 -0 -0 -0 -0 -0 -0 -0 -0 -0 -0 -0 -0 -0 -0 -0 -0 -0 -0 -0 -0 -0 -0 -0
-0 -0 -0 -0 -0 -0 -0 -0 -0 -0 -0 -0 -0 -0 -0 -0 -0 -0 -0 -0 -0 -0 -0 -0 -0 -0 -0 -0 -0 -0 -0 -0 -0 -0 -0 -0 -0 -0 -0 -0 -0 -0 -0 -0 -0 -0 -0
-0 -0 -0 -0 -0 -0 -0 -0 -0 -0 -0 -0 -0 -0 -0 -0 -0 -0 -0 -0 -0 -0 -0 -0 -0 -0 -0 -0 -0 -0 -0 -0 -0 -0 -0 -0 -0 -0 -0 -0 -0 -0 -0 -0 -0 -0 -0
-0 -0 -0 -0 -0 -0 -0 -0 -0 -0 -0 -0 -0 -0 -0 -0 -0 -0 -0 -0 -0 -0 -0 -0 -0 -0 -0 -0 -0 -0 -0 -0 -0 -0 -0 -0 -0 -0 -0 -0 -0 -0 -0 -0 -0 -0 -0
-0 -0 -0 -0 -0 -0 -0 -0 -0 -0 -0 -0 -0 -0 -0 -0 -0 -0 -0 -0 -0 -0 -0 -0 -0 -0 -0 -0 -0 -0 -0 -0 -0 -0 -0 -0 -0 -0 -0 -0 -0 -0 -0 -0 -0 -0 -0
-0 -0 -0 -0 -0 -0 -0 -0 -0 -0 -0 -0 -0 -0 -0 -0 -0 -0 -0 -0 -0 -0 -0 -0 -0 -0 -0 -0 -0 -0 -0 -0 -0 -0 -0 -0 -0 -0 -0 -0 -0 -0 -0 -0 -0 -0 -0
-0 -0 -0 -0 -0 -0 -0 -0 -0 -0 -0 -0 -0 -0 -0 -0 -0 -0 -0 -0 -0 -0 -0 -0 -0 -0 -0 -0 -0 -0 -0 -0 -0 -0 -383 -0 -0 -0 -0 -0 -0 -0 -0 -0 -0 -0 -0
-0 -0 -0 -0 -0 -0 -0 -0 -0 -0 -0 -0 -0 -0 -0 -0 -0 -0 -0 -0 -0 -0 -0 -0 -0 -0 -0 -0 -0 -0 -0 -0 -0 -0 -0 -0 -0 -0 -0 -0 -0 -0 -0 -0 -0 -0 -0
-0 -0 -0 -0 -0 -0 -0 -0 -0 -0 -0 -0 -0 -0 -0 -0 -0 -0 -0 -0 -0 -0 -0 -0 -0 -0 -0 -0 -0 -0 -0 -0 -0 -0 -0 -0 -0 -0 -0 -0 -0 -0 -0 -0 -0 -0 -0
-0 -0 -0 -0 -0 -0 -0 -0 -0 -0 -0 -0 -0 -0 -0 -0 -0 -0 -0 -0 -0 -0 -0 -0 -0 -0 -0 -0 -0 -0 -0 -0 -0 -0 -0 -0 -0 -0 -0 -0 -0 -0 -0 -0 -0 -0 -0
-0 -0 -0 -0 -0 -0 -0 -0 -0 -0 -0 -0 -0 -0 -0 -0 -0 -0 -0 -0 -0 -0 -0 -0 -0 -0 -0 -0 -0 -0 -0 -0 -0 -0 -0 -0 -0 -0 -0 -0 -0 -0 -0 -0 -0 -0 -0
-0 -0 -0 -0 -0 -0 -0 -0 -0 -0 -0 -0 -0 -0 -0 -0 -0 -0 -0 -0 -0 -0 -0 -0 -0 -0 -0 -0 -0 -0 -0 -0 -0 -0 -0 -0 -0 -0 -0 -0 -0 -0 -0 -0 -0 -0 -0
-0 -0 -0 -0 -0 -0 -0 -0 -0 -0 -0 -0 -0 -0 -0 -0 -0 -0 -0 -0 -0 -0 -0 -0 -0 -0 -0 -0 -0 -0 -0 -0 -0 -0 -0 -0 -0 -0 -0 -0 -0 -0 -0 -0 -0 -0 -0
-0 -0 -0 -0 -0 -0 -0 -0 -0 -0 -1 -0 -0 -0 -0 -0 -0 -0 -0 -0 -0 -0 -0 -0 -0 -0 -0 -0 -0 -0 -0 -0 -0 -0 -0 -0 -0 -0 -0 -0 -0 -0 -0 -0 -0 -0 -127
-0 -0 -0 -0 -0 -0 -0 -0 -0 -0 -0 -0 -0 -0 -0 -0 -0 -0 -0 -0 -0 -0 -0 -0 -0 -0 -0 -0 -0 -0 -0 -0 -0 -0 -0 -0 -0 -0 -0 -0 -0 -0 -0 -0 -0 -0 -0
-0 -0 -0 -0 -0 -0 -0 -0 -0 -0 -1 -2 -0 -0 -0 -0 -0 -0 -0 -0 -0 -0 -0 -0 -0 -0 -0 -0 -0 -0 -0 -0 -0 -0 -0 -0 -0 -0 -0 -0 -0 -0 -0 -0 -0 -0 -0
Wind_Speed
16 16 16 16 15 16 17 18 19 19 19 19 19 19 17 17 18 18 18 18 17 13 13 11 9 9 1 2 8 10 17 12 11 6 6 4 4 3 2 3 3 4 6 8 7 7 7
16 16 16 16 15 15 16 17 18 20 20 20 19 19 19 18 17 18 18 19 17 15 12 11 8 7 2 3 0 14 18 13 9 11 11 9 6 5 2 4 5 4 6 5 4 5 7
15 16 16 16 17 18 18 19 19 20 21 22 21 20 19 20 19 19 20 20 19 16 12 9 6 3 1 11 1 8 14 9 7 14 16 2 2 3 3 4 1 3 2 4 2 3 5
17 17 18 18 19 19 20 21 21 21 20 21 22 22 22 21 21 20 20 21 20 17 9 6 4 2 8 5 6 6 4 1 3 6 3 5 4 4 3 6 6 5 4 2 4 6 5
18 20 20 20 20 20 20 21 22 21 21 21 21 22 23 23 22 21 22 22 18 7 3 8 3 1 10 3 3 5 5 4 3 7 3 9 5 3 3 4 6 3 4 5 4 9 7
20 20 20 21 22 21 21 22 22 22 22 21 22 22 23 24 23 22 23 19 1 6 2 4 3 2 2 6 3 6 4 2 4 4 8 2 3 2 2 4 8 8 5 4 7 6 4
20 21 21 22 22 22 22 22 23 23 23 23 23 23 24 24 24 21 12 3 6 5 2 8 7 5 4 3 5 7 7 7 2 1 5 3 4 8 7 12 13 10 7 8 5 6 6
21 21 21 22 22 22 23 24 23 24 24 24 24 24 25 25 24 21 1 6 4 2 10 11 12 9 7 3 5 5 12 7 8 9 5 3 8 14 11 10 11 14 12 15 3 7 6
20 20 20 21 22 22 22 22 23 24 24 24 24 24 24 27 26 3 2 4 2 0 2 10 7 6 6 9 9 11 13 8 8 7 8 10 16 6 5 3 2 5 4 12 2 3 4
20 20 20 21 22 22 22 23 23 24 24 25 24 23 22 29 3 5 5 3 5 3 6 9 4 8 5 9 7 10 8 8 3 13 7 7 6 6 9 3 6 3 7 13 7 6 6
21 21 21 22 22 23 23 24 25 25 26 26 24 21 18 9 4 2 5 8 8 6 4 4 2 1 2 9 1 9 7 3 7 5 6 12 4 12 9 6 5 12 6 10 9 2 7
22 22 23 23 23 24 24 25 26 27 27 27 25 19 14 2 1 8 9 8 5 8 4 8 5 6 3 4 6 5 4 5 2 4 3 8 2 6 9 4 7 8 5 7 6 4 2
23 23 23 24 25 25 25 26 26 28 28 28 26 19 5 2 3 6 5 5 7 4 5 9 6 8 2 3 5 3 3 2 6 2 6 6 7 5 3 7 1 6 7 5 5 3 8
23 23 23 24 25 26 27 28 28 29 30 30 29 17 10 5 4 6 5 7 2 2 3 5 5 7 7 9 6 8 2 1 6 4 2 5 13 5 4 8 10 5 9 7 5 3 8
22 23 24 25 26 27 28 30 31 32 31 31 22 2 1 4 5 2 7 5 6 4 3 6 9 6 7 8 3 7 7 3 3 4 1 3 10 4 4 7 8 5 4 7 7 2 2
23 23 24 26 27 28 29 30 31 33 32 27 3 4 4 3 5 6 7 4 4 5 5 1 2 1 3 6 6 6 4 2 4 3 3 2 6 6 8 2 4 7 6 0 3 2 5
23 23 24 26 27 29 30 32 32 33 34 20 3 5 4 4 4 7 4 4 4 6 4 2 2 3 2 1 3 2 4 4 7 6 4 0 3 9 3 2 7 1 3 2 5 6 6
22 23 24 26 28 29 31 33 33 32 32 8 3 4 5 3 6 2 1 3 5 6 5 5 2 2 1 1 1 3 2 6 12 7 3 3 5 4 9 12 5 3 4 6 6 7 4
21 22 24 26 27 29 30 33 34 33 26 3 4 2 5 5 4 4 7 6 3 8 7 7 6 7 5 4 4 1 5 6 12 11 6 4 2 4 13 9 9 6 4 1 3 2 6
21 22 23 25 27 29 30 32 36 36 27 3 4 5 7 7 3 3 6 5 7 8 3 5 2 4 5 6 5 3 4 7 9 5 10 2 2 7 7 8 5 7 6 5 4 3 3
21 23 23 24 25 27 29 31 34 38 30 3 6 1 2 5 5 5 2 5 6 9 6 9 5 5 2 4 6 5 0 4 7 1 8 4 2 4 5 9 6 8 11 6 4 7 5
20 22 22 22 23 25 27 28 31 36 28 7 4 4 5 2 4 5 5 4 4 4 3 5 4 12 5 2 3 6 7 0 7 6 9 5 4 1 4 6 8 9 11 10 9 6 8
18 20 21 22 23 22 24 25 27 30 16 5 3 3 3 3 4 3 2 2 6 6 6 2 8 7 4 2 10 13 12 10 9 6 5 3 3 3 5 4 8 12 7 5 2 4 4
17 18 19 20 21 22 21 22 23 24 15 2 1 1 4 5 2 3 5 11 9 4 8 9 8 5 3 15 11 6 7 11 10 10 10 7 5 5 5 3 9 6 2 2 8 8 3
16 17 17 18 19 19 20 20 20 19 20 4 3 3 2 4 4 11 3 4 9 7 6 9 10 3 10 6 4 6 6 6 6 10 13 12 7 4 6 7 13 16 3 3 3 15 8
16 16 16 17 17 18 18 18 18 17 17 3 2 1 2 1 6 3 7 3 4 4 6 5 12 11 5 2 3 6 4 0 5 7 6 5 1 5 3 5 8 4 2 1 1 13 20
15 15 16 16 16 16 17 17 16 16 14 3 3 2 3 2 6 4 3 4 3 3 4 6 6 8 2 0 2 4 6 5 5 6 2 5 3 6 6 7 7 4 9 6 7 9 17
15 15 15 15 15 15 15 15 15 15 13 4 4 3 3 4 9 6 6 6 3 4 4 5 6 2 3 2 3 4 3 3 2 3 6 9 7 5 3 6 10 9 5 4 9 10 11
16 16 15 14 14 14 14 15 14 14 13 8 2 3 1 5 9 5 16 19 13 14 2 6 7 2 4 1 2 2 3 3 1 4 4 4 6 4 8 6 4 2 4 10 7 8 13
Wind_Direction
20 18 15 11 6 3 358 353 352 350 349 347 344 339 338 336 331 326 321 315 316 317 311 304 302 308 207 313 249 128 126 143 163 169 163 161 147 128 240 237 146 261 257 245 223 166 146
11 8 6 4 2 359 356 353 351 348 345 343 341 338 334 332 329 324 319 313 311 312 306 298 296 301 277 287 169 137 130 152 188 196 207 200 204 194 160 224 183 214 267 26 111 138 137
9 7 5 3 1 358 356 354 352 349 344 341 338 336 333 330 327 322 317 311 308 308 298 284 280 270 28 243 45 129 141 174 191 200 231 144 113 2 353 307 273 282 63 356 120 79 93
9 10 11 9 6 0 356 353 351 348 343 339 336 333 331 328 324 320 314 310 307 300 283 246 227 237 249 322 115 129 119 24 255 221 325 121 96 155 147 300 7 351 51 134 216 139 182
13 11 9 7 3 358 355 352 349 346 342 338 335 331 328 325 323 320 316 311 308 298 149 149 133 154 270 319 159 192 146 188 66 343 25 326 50 27 4 49 350 336 235 211 248 191 142
9 6 5 3 0 356 351 349 346 343 340 337 333 331 326 324 322 322 321 308 98 107 184 203 261 21 267 245 197 153 147 156 103 83 343 34 84 72 39 101 237 241 229 236 217 200 169
10 8 5 2 356 353 350 349 345 341 338 335 332 328 327 324 321 323 340 96 21 2 296 200 202 242 287 246 147 209 150 121 50 139 200 202 35 251 200 206 233 239 231 225 230 175 142
12 9 5 360 352 351 349 346 342 339 336 332 330 328 327 323 321 323 263 84 144 210 295 237 245 243 261 66 341 264 128 154 150 216 129 35 232 243 225 217 232 259 245 245 275 182 158
8 4 359 356 354 352 348 345 341 336 333 329 328 328 328 321 318 325 279 213 357 259 211 288 220 225 229 146 218 256 151 182 189 213 216 206 245 294 293 25 322 272 214 270 245 111 60
7 2 357 354 352 350 348 344 339 333 329 325 326 328 330 323 15 322 288 293 306 206 48 283 273 272 173 150 245 205 206 150 194 213 214 222 286 278 312 292 200 221 237 246 197 157 199
6 1 357 354 351 350 347 342 337 333 328 324 325 327 328 328 282 314 291 332 321 60 6 303 300 241 154 174 129 227 171 108 211 197 128 245 268 285 285 241 226 265 191 227 178 159 114
6 0 357 353 350 349 346 342 337 332 328 324 323 324 326 125 241 248 304 317 53 46 268 333 335 337 114 315 313 325 128 97 168 203 219 235 220 193 229 252 205 284 345 36 50 83 0
6 360 356 353 351 348 345 342 337 331 329 325 321 316 282 280 228 306 311 40 42 124 324 330 328 355 331 2 348 10 315 211 174 129 281 320 263 259 203 296 172 72 51 334 351 30 228
4 358 356 354 351 349 346 343 339 334 333 329 324 317 175 222 277 346 45 49 133 280 334 322 322 331 42 9 5 356 54 269 31 60 32 230 288 207 215 198 235 201 150 159 239 230 262
2 359 356 355 353 350 348 345 341 337 338 335 322 350 200 271 192 103 71 68 211 219 253 320 328 45 342 354 8 23 358 94 102 75 173 179 266 292 237 228 148 262 192 196 127 71 354
2 360 358 356 354 352 350 347 344 339 339 340 12 359 333 317 158 59 72 208 239 225 321 213 303 123 14 329 30 28 336 67 354 254 184 246 287 241 287 145 238 181 175 306 11 212 247
3 0 359 357 355 354 352 349 349 344 340 334 39 48 290 12 49 45 95 245 296 296 15 332 268 297 48 18 276 296 319 328 7 324 338 29 121 291 30 164 228 331 270 83 127 146 185
4 1 0 358 357 356 355 351 351 351 344 41 42 60 295 31 46 37 23 328 292 326 342 349 78 40 316 188 273 264 126 20 357 308 28 311 142 298 262 277 257 272 244 159 135 263 220
2 2 2 360 359 359 358 354 352 354 358 346 56 278 324 58 74 340 316 314 320 342 347 357 350 22 351 346 9 259 27 16 7 356 3 321 320 2 340 355 2 30 332 206 158 103 223
3 3 2 1 0 360 360 359 353 354 357 51 54 15 340 34 51 69 350 324 345 335 49 352 76 63 15 5 14 352 25 3 330 328 327 66 136 155 189 232 263 291 306 304 115 110 267
360 360 1 2 3 2 2 1 359 354 353 43 24 39 179 332 347 339 313 357 355 1 350 4 25 54 348 298 334 3 81 326 304 305 3 75 265 196 255 264 248 248 272 256 231 235 214
357 357 359 1 3 5 6 4 4 359 348 70 70 27 357 303 303 350 355 17 4 332 287 329 17 325 278 231 121 283 298 105 229 334 357 349 275 35 262 269 274 256 243 242 230 237 253
353 354 355 358 2 4 7 8 9 7 8 60 335 345 89 294 340 21 232 20 316 2 279 266 333 315 255 315 296 262 229 238 226 207 213 217 167 343 265 296 319 295 240 176 353 264 214
347 350 353 355 357 1 6 10 12 14 25 88 344 44 43 290 315 256 308 311 286 287 258 285 292 264 291 317 296 279 240 232 227 228 184 188 170 156 238 352 240 248 355 246 220 241 236
337 342 345 351 353 357 1 7 12 15 11 58 341 44 54 287 245 292 282 307 300 270 262 276 284 336 297 288 323 332 327 349 268 225 211 188 167 206 180 210 278 290 306 92 33 310 41
327 331 334 341 348 351 357 2 8 13 10 57 317 171 94 56 253 338 318 289 291 311 316 284 332 299 287 230 157 211 227 81 287 303 119 140 178 162 153 202 235 255 98 210 9 287 359
314 319 324 330 337 343 349 353 358 6 9 29 294 23 100 253 265 145 227 259 287 267 255 296 323 323 329 151 208 200 226 210 230 204 252 321 358 202 203 241 277 339 294 282 250 285 349
303 306 310 317 326 332 338 343 347 354 0 37 281 316 88 257 280 233 199 202 214 193 188 293 355 311 298 205 189 244 215 256 310 257 204 208 198 204 200 224 266 4 19 29 289 332 326
291 294 299 306 313 319 325 333 337 341 346 7 295 282 136 219 253 238 255 246 225 241 235 218 218 245 261 282 275 355 342 329 210 267 289 269 193 206 189 226 170 118 197 264 281 309 324